FW4522 Weather Reports


time (UTC)temp
F
wind
direction
speed
knots
gust
knots
rain 1hr
in
rain 24hr
in
rain mn
in
humidity
%
barometer
mb
20260502200050 47 360 0.0 1.7 0.00 0.00 0.00 69 1021.5
20260502194548 47 360 0.0 0.0 0.00 0.00 0.00 69 1021.6
20260502193048 47 360 0.0 0.0 0.00 0.00 0.00 69 1021.5
20260502190049 50 360 0.0 0.0 0.00 0.00 0.00 66 1021.4
20260502184601 52 360 0.0 0.0 0.00 0.00 0.00 64 1021.3
20260502183051 55 360 0.0 0.0 0.00 0.00 0.00 59 1021.1
20260502163052 71 360 2.6 7.0 0.00 0.00 0.00 32 1021.4
20260502123016 70 360 0.9 7.0 0.00 0.00 0.00 39 1024.0
20260502114514 68 360 2.6 7.0 0.00 0.00 0.00 36 1024.7
20260502113010 68 360 2.6 7.0 0.00 0.00 0.00 37 1024.8
20260502110007 68 360 0.0 4.3 0.00 0.00 0.00 38 1025.1
20260502104506 67 360 0.0 7.0 0.00 0.00 0.00 40 1025.2
20260502103009 67 360 3.5 7.8 0.00 0.00 0.00 44 1025.5
20260502100121 66 360 1.7 5.2 0.00 0.00 0.00 42 1026.0
20260502070046 58 360 0.0 1.7 0.00 0.00 0.00 63 1027.4
20260502064531 56 360 0.0 0.9 0.00 0.00 0.00 69 1027.4
20260502063030 54 360 0.9 1.7 0.00 0.00 0.00 70 1027.6
20260502060019 49 360 0.0 0.0 0.00 0.00 0.00 73 1027.8
20260502054514 45 360 0.0 0.0 0.00 0.00 0.00 79 1027.7
20260502053010 42 360 0.0 0.0 0.00 0.00 0.00 86 1027.7
20260502050005 34 360 0.0 0.0 0.00 0.00 0.00 90 1027.7
20260502044504 33 360 0.0 0.0 0.00 0.00 0.00 90 1027.6
20260502043005 31 360 0.0 0.0 0.00 0.00 0.00 89 1027.8
20260502040000 30 360 0.0 0.0 0.00 0.00 0.00 87 1027.6
20260502034600 30 360 0.0 0.0 0.00 0.00 0.00 87 1027.7
20260502033105 30 360 0.0 0.0 0.00 0.00 0.00 87 1027.7
20260502031557 31 360 0.0 0.0 0.00 0.00 0.00 87 1027.8
20260502030100 31 360 0.0 0.0 0.00 0.00 0.00 87 1027.7
20260502023109 31 360 0.0 0.0 0.00 0.00 0.00 86 1027.8
20260502021553 31 360 0.0 0.0 0.00 0.00 0.00 87 1027.9
20260502020052 32 360 0.0 0.0 0.00 0.00 0.00 86 1027.8
20260502013048 32 360 0.0 0.0 0.00 0.00 0.00 86 1028.1
20260502011554 33 360 0.0 0.0 0.00 0.00 0.00 86 1028.1
20260502010046 33 360 0.0 0.0 0.00 0.00 0.00 86 1028.3
20260502003044 34 360 0.0 0.0 0.00 0.00 0.00 85 1028.6
20260502001541 34 360 0.0 0.0 0.00 0.00 0.00 86 1028.5
20260502000039 34 360 0.0 0.0 0.00 0.00 0.00 85 1028.6
20260501234638 34 360 0.0 0.0 0.00 0.00 0.00 85 1028.7
20260501233037 35 360 0.0 0.0 0.00 0.00 0.00 85 1028.8
20260501231535 35 360 0.0 0.0 0.00 0.00 0.00 85 1028.8
20260501230037 35 360 0.0 0.0 0.00 0.00 0.00 84 1028.8
20260501223035 36 360 0.0 0.0 0.00 0.00 0.00 83 1028.8
20260501221529 37 360 0.0 0.0 0.00 0.00 0.00 84 1028.8
20260501220026 37 360 0.0 0.0 0.00 0.00 0.00 83 1028.8
20260501214626 37 360 0.0 0.0 0.00 0.00 0.00 82 1028.9
20260501213024 38 360 0.0 0.0 0.00 0.00 0.00 83 1028.9
20260501211524 38 360 0.0 0.0 0.00 0.00 0.00 82 1028.8
20260501210023 38 360 0.0 0.0 0.00 0.00 0.00 82 1028.7
20260501204524 39 360 0.0 0.0 0.00 0.00 0.00 81 1028.6
20260501203037 40 360 0.0 0.0 0.00 0.00 0.00 81 1028.8